EW3086 Weather Reports


Display with metric or nautical units.
time (UTC)temp
F
wind
direction
speed
MPH
gust
MPH
rain 1hr
in
rain 24hr
in
rain mn
in
humidity
%
barometer
mb
20260507164503 54 87 0.0 1.0 0.00 0.00 0.00 79 1014.2
20260507164024 54 112 0.0 1.0 0.00 0.00 0.00 80 1014.2
20260507163503 54 101 0.0 1.0 0.00 0.00 0.00 80 1014.2
20260507163003 54 90 0.0 1.0 0.00 0.00 0.00 80 1014.2
20260507162524 54 83 0.0 1.0 0.00 0.00 0.00 81 1014.1
20260507162003 54 92 0.0 1.0 0.00 0.00 0.00 81 1014.2
20260507161503 54 89 0.0 1.0 0.00 0.00 0.00 82 1014.2
20260507161003 53 83 0.0 1.0 0.00 0.00 0.00 82 1014.2
20260507160504 54 75 0.0 1.0 0.00 0.00 0.00 82 1014.2
20260507160004 54 75 0.0 1.0 0.00 0.00 0.00 83 1014.2
20260507155503 54 89 0.0 1.0 0.00 0.00 0.00 83 1014.2
20260507155003 54 71 0.0 1.0 0.00 0.00 0.00 83 1014.3
20260507154504 54 73 0.0 1.0 0.00 0.00 0.00 82 1014.2
20260507154025 54 97 0.0 1.0 0.00 0.00 0.00 81 1014.2
20260507153504 54 98 0.0 1.0 0.00 0.00 0.00 79 1014.2
20260507153004 54 98 0.0 1.0 0.00 0.00 0.00 79 1014.2
20260507152524 54 96 0.0 1.0 0.00 0.00 0.00 79 1014.3
20260507152004 55 61 0.0 1.0 0.00 0.00 0.00 78 1014.2
20260507151504 55 45 0.0 1.0 0.00 0.00 0.00 78 1014.3
20260507151003 55 81 0.0 1.0 0.00 0.00 0.00 77 1014.3
20260507150524 55 86 0.0 1.0 0.00 0.00 0.00 76 1014.3
20260507150024 55 106 0.0 1.0 0.00 0.00 0.00 80 1014.2
20260507145503 55 104 0.0 1.0 0.00 0.00 0.00 81 1014.3
20260507145024 54 98 0.0 1.0 0.00 0.00 0.00 81 1014.2
20260507144503 54 95 0.0 1.0 0.00 0.00 0.00 81 1014.3
20260507144003 54 100 0.0 1.0 0.00 0.00 0.00 80 1014.4
20260507143503 54 104 0.0 1.0 0.00 0.00 0.00 83 1014.5
20260507143004 54 97 0.0 1.0 0.00 0.00 0.00 83 1014.4
20260507142503 53 81 0.0 2.0 0.00 0.00 0.00 83 1014.5
20260507142003 53 78 0.0 2.0 0.00 0.00 0.00 83 1014.6
20260507141527 53 84 0.0 2.0 0.00 0.00 0.00 83 1014.7
20260507141007 53 92 0.0 1.0 0.00 0.00 0.00 82 1014.8
20260507140506 54 90 0.0 2.0 0.00 0.00 0.00 83 1014.8
20260507140006 54 90 0.0 2.0 0.00 0.00 0.00 82 1014.7
20260507135507 54 93 0.0 1.0 0.00 0.00 0.00 82 1014.7
20260507135028 54 93 0.0 1.0 0.00 0.00 0.00 81 1014.6
20260507134506 54 90 0.0 2.0 0.00 0.00 0.00 81 1014.6
20260507134006 54 91 0.0 2.0 0.00 0.00 0.00 80 1014.6
20260507133507 54 96 0.0 2.0 0.00 0.00 0.00 78 1014.6
20260507133007 55 99 0.0 3.0 0.00 0.00 0.00 77 1014.5
20260507132527 55 95 0.0 3.0 0.00 0.00 0.00 76 1014.5
20260507132007 55 118 0.0 1.0 0.00 0.00 0.00 75 1014.5
20260507131527 56 110 0.0 1.0 0.00 0.00 0.00 74 1014.5
20260507131007 56 97 0.0 2.0 0.00 0.00 0.00 73 1014.5
20260507130512 56 91 1.0 3.0 0.00 0.00 0.00 73 1014.5
20260507130028 57 94 1.0 3.0 0.00 0.00 0.00 72 1014.5
20260507125506 57 95 0.0 2.0 0.00 0.00 0.00 70 1014.4
20260507125006 58 97 0.0 2.0 0.00 0.00 0.00 70 1014.5
20260507124506 58 121 0.0 2.0 0.00 0.00 0.00 69 1014.4
20260507124007 58 114 0.0 2.0 0.00 0.00 0.00 67 1014.4
20260507123506 59 96 0.0 3.0 0.00 0.00 0.00 67 1014.4
20260507123006 60 89 1.0 3.0 0.00 0.00 0.00 67 1014.4
20260507122506 61 98 1.0 3.0 0.00 0.00 0.00 66 1014.4
20260507122006 62 123 1.0 3.0 0.00 0.00 0.00 56 1014.4
20260507121506 62 172 1.0 3.0 0.00 0.00 0.00 54 1014.3
20260507121027 62 164 1.0 7.0 0.00 0.00 0.00 55 1014.4
20260507120506 61 174 1.0 7.0 0.00 0.00 0.00 56 1014.3
20260507120027 61 160 1.0 4.0 0.00 0.00 0.00 56 1014.4
20260507115506 60 144 1.0 4.0 0.00 0.00 0.00 55 1014.4
20260507115007 61 152 1.0 3.0 0.00 0.00 0.00 60 1014.4
20260507114527 60 137 1.0 3.0 0.00 0.00 0.00 60 1014.3
20260507114006 60 121 1.0 4.0 0.00 0.00 0.00 60 1014.4
20260507113506 60 149 1.0 4.0 0.00 0.00 0.00 58 1014.4
20260507113006 61 180 1.0 4.0 0.00 0.00 0.00 60 1014.4
20260507112506 60 175 1.0 5.0 0.00 0.00 0.00 58 1014.4
20260507112006 60 153 1.0 5.0 0.00 0.00 0.00 58 1014.4
20260507111507 60 157 1.0 4.0 0.00 0.00 0.00 58 1014.4
20260507111006 61 168 1.0 4.0 0.00 0.00 0.00 58 1014.5
20260507110527 61 185 1.0 4.0 0.00 0.00 0.00 57 1014.4
20260507110006 60 155 1.0 6.0 0.00 0.00 0.00 57 1014.4
20260507105506 60 120 1.0 6.0 0.00 0.00 0.00 59 1014.4
20260507105006 61 128 1.0 6.0 0.00 0.00 0.00 58 1014.4
20260507104507 61 197 0.0 4.0 0.00 0.00 0.00 60 1014.4
20260507104027 61 168 1.0 4.0 0.00 0.00 0.00 59 1014.4
20260507103506 61 166 1.0 4.0 0.00 0.00 0.00 58 1014.4
20260507103006 62 175 2.0 5.0 0.00 0.00 0.00 57 1014.5
20260507102506 62 153 2.0 6.0 0.00 0.00 0.00 57 1014.5
20260507102007 62 167 1.0 6.0 0.00 0.00 0.00 57 1014.5
20260507101507 62 177 0.0 3.0 0.00 0.00 0.00 58 1014.5
20260507101006 61 134 1.0 3.0 0.00 0.00 0.00 60 1014.5
20260507100506 61 187 2.0 5.0 0.00 0.00 0.00 59 1014.5
20260507100006 61 181 2.0 9.0 0.00 0.00 0.00 57 1014.5
20260507095506 61 161 1.0 9.0 0.00 0.00 0.00 59 1014.4
20260507095006 61 190 1.0 4.0 0.00 0.00 0.00 60 1014.4
20260507094506 61 200 1.0 7.0 0.00 0.00 0.00 61 1014.4
20260507094006 61 182 1.0 7.0 0.00 0.00 0.00 60 1014.4
20260507093527 61 159 1.0 7.0 0.00 0.00 0.00 61 1014.4
20260507093006 61 171 1.0 7.0 0.00 0.00 0.00 63 1014.4
20260507092506 61 180 1.0 4.0 0.00 0.00 0.00 64 1014.3
20260507092027 60 160 1.0 4.0 0.00 0.00 0.00 64 1014.3
20260507091506 60 150 1.0 4.0 0.00 0.00 0.00 64 1014.3
20260507091006 60 167 1.0 6.0 0.00 0.00 0.00 65 1014.2
20260507090506 60 163 1.0 6.0 0.00 0.00 0.00 65 1014.3
20260507090006 59 167 1.0 6.0 0.00 0.00 0.00 65 1014.2
20260507085506 60 180 1.0 6.0 0.00 0.00 0.00 66 1014.3
20260507085006 59 174 1.0 7.0 0.00 0.00 0.00 66 1014.3
20260507084506 59 177 2.0 7.0 0.00 0.00 0.00 66 1014.3
20260507084006 59 181 2.0 6.0 0.00 0.00 0.00 66 1014.3
20260507083506 59 167 1.0 6.0 0.00 0.00 0.00 67 1014.3
20260507083027 59 193 1.0 7.0 0.00 0.00 0.00 65 1014.2
20260507082527 58 187 1.0 7.0 0.00 0.00 0.00 69 1014.3
20260507082005 58 184 1.0 5.0 0.00 0.00 0.00 67 1014.3
20260507081505 58 186 2.0 5.0 0.00 0.00 0.00 69 1014.3
20260507081006 58 185 1.0 5.0 0.00 0.00 0.00 67 1014.3
20260507080505 57 200 1.0 4.0 0.00 0.00 0.00 70 1014.2
20260507080006 56 202 2.0 7.0 0.00 0.00 0.00 71 1014.3
20260507075506 56 192 2.0 11.0 0.00 0.00 0.00 71 1014.3
20260507075006 56 188 2.0 11.0 0.00 0.00 0.00 71 1014.2
20260507074505 56 186 2.0 6.0 0.00 0.00 0.00 72 1014.2
20260507074005 55 189 2.0 5.0 0.00 0.00 0.00 73 1014.2
20260507073506 55 185 2.0 5.0 0.00 0.00 0.00 73 1014.2
20260507073006 55 187 2.0 6.0 0.00 0.00 0.00 73 1014.2
20260507072506 55 181 2.0 6.0 0.00 0.00 0.00 74 1014.2
20260507072006 54 150 1.0 5.0 0.00 0.00 0.00 76 1014.2
20260507071505 53 150 1.0 5.0 0.00 0.00 0.00 78 1014.2
20260507071006 52 153 1.0 6.0 0.00 0.00 0.00 80 1014.1
20260507070505 52 155 1.0 6.0 0.00 0.00 0.00 81 1014.2
20260507070010 51 158 0.0 3.0 0.00 0.00 0.00 82 1014.1
20260507065505 51 207 1.0 2.0 0.00 0.00 0.00 84 1014.1
20260507065005 50 188 1.0 2.0 0.00 0.00 0.00 84 1014.0
20260507064506 50 84 0.0 2.0 0.00 0.00 0.00 85 1014.0
20260507064006 50 73 0.0 2.0 0.00 0.00 0.00 85 1014.0
20260507063526 50 77 0.0 2.0 0.00 0.00 0.00 85 1014.0
20260507063006 50 84 0.0 3.0 0.00 0.00 0.00 85 1014.0
20260507062506 50 82 1.0 3.0 0.00 0.00 0.00 84 1014.0
20260507062006 50 83 0.0 3.0 0.00 0.00 0.00 84 1014.1
20260507061526 49 83 0.0 4.0 0.00 0.00 0.00 84 1014.1
20260507061005 49 81 1.0 4.0 0.00 0.00 0.00 84 1014.1
20260507060505 49 79 1.0 3.0 0.00 0.00 0.00 83 1014.1
20260507060005 49 82 0.0 2.0 0.00 0.00 0.00 84 1014.0
20260507055505 49 87 0.0 3.0 0.00 0.00 0.00 84 1014.0
20260507055006 49 83 1.0 3.0 0.00 0.00 0.00 84 1014.0
20260507054505 48 85 1.0 2.0 0.00 0.00 0.00 84 1014.1
20260507054026 48 86 1.0 4.0 0.00 0.00 0.00 84 1014.1
20260507053506 48 83 1.0 4.0 0.00 0.00 0.00 84 1014.1
20260507053026 48 81 0.0 4.0 0.00 0.00 0.00 84 1014.0
20260507052505 48 70 0.0 1.0 0.00 0.00 0.00 84 1014.1
20260507052005 47 89 0.0 2.0 0.00 0.00 0.00 84 1014.1
20260507051505 47 103 0.0 2.0 0.00 0.00 0.00 84 1014.0
20260507051005 47 212 0.0 1.0 0.00 0.00 0.00 84 1014.0
20260507050526 47 199 0.0 1.0 0.00 0.00 0.00 83 1014.0
20260507050006 48 203 0.0 2.0 0.00 0.00 0.00 83 1014.0
20260507045505 48 208 0.0 2.0 0.00 0.00 0.00 82 1013.9
20260507045005 48 208 0.0 1.0 0.00 0.00 0.00 82 1013.9
20260507044526 48 209 0.0 1.0 0.00 0.00 0.00 82 1013.9
20260507044005 48 211 0.0 1.0 0.00 0.00 0.00 81 1013.8
20260507043505 48 213 0.0 1.0 0.00 0.00 0.00 81 1013.8
20260507043005 48 215 0.0 2.0 0.00 0.00 0.00 81 1013.8
20260507042527 49 213 1.0 2.0 0.00 0.00 0.00 80 1013.8
20260507042005 48 208 0.0 2.0 0.00 0.00 0.00 81 1013.8
20260507041505 48 204 0.0 2.0 0.00 0.00 0.00 81 1013.8
20260507041005 48 211 0.0 2.0 0.00 0.00 0.00 81 1013.8
20260507040505 48 212 0.0 2.0 0.00 0.00 0.00 81 1013.8
20260507040005 48 212 0.0 1.0 0.00 0.00 0.00 81 1013.8
20260507035505 48 212 0.0 1.0 0.00 0.00 0.00 81 1013.8
20260507035005 48 213 0.0 1.0 0.00 0.00 0.00 81 1013.8
20260507034505 48 212 0.0 1.0 0.00 0.00 0.00 82 1013.8
20260507034005 48 212 0.0 1.0 0.00 0.00 0.00 82 1013.8
20260507033505 48 211 0.0 1.0 0.00 0.00 0.00 82 1013.8
20260507033026 48 209 0.0 1.0 0.00 0.00 0.00 82 1013.8
20260507032505 48 209 0.0 1.0 0.00 0.00 0.00 82 1013.7
20260507032005 48 90 0.0 2.0 0.00 0.00 0.00 81 1013.7
20260507031505 48 175 1.0 2.0 0.00 0.00 0.00 82 1013.8
20260507031005 48 203 1.0 2.0 0.00 0.00 0.00 82 1013.8
20260507030505 48 202 0.0 2.0 0.00 0.00 0.00 82 1013.8
20260507030005 48 210 0.0 1.0 0.00 0.00 0.00 82 1013.7
20260507025526 48 211 0.0 1.0 0.00 0.00 0.00 81 1013.8
20260507025005 48 212 0.0 2.0 0.00 0.00 0.00 80 1013.8
20260507024505 49 201 0.0 2.0 0.00 0.00 0.00 79 1013.8
20260507024005 49 151 0.0 1.0 0.00 0.00 0.00 79 1013.8
20260507023505 49 214 0.0 1.0 0.00 0.00 0.00 79 1013.8
20260507023005 49 215 0.0 1.0 0.00 0.00 0.00 79 1013.8
20260507022505 49 215 0.0 1.0 0.00 0.00 0.00 78 1013.8
20260507022005 49 215 0.0 1.0 0.00 0.00 0.00 79 1013.8
20260507021505 49 215 0.0 1.0 0.00 0.00 0.00 79 1013.8
20260507021005 49 213 0.0 1.0 0.00 0.00 0.00 78 1013.8
20260507020526 49 208 0.0 1.0 0.00 0.00 0.00 78 1013.8
20260507020005 49 207 0.0 1.0 0.00 0.00 0.00 79 1013.8
20260507015505 48 207 0.0 1.0 0.00 0.00 0.00 79 1013.9
20260507015005 48 207 0.0 1.0 0.00 0.00 0.00 79 1013.9
20260507014505 49 209 0.0 1.0 0.00 0.00 0.00 79 1013.8
20260507014005 49 213 0.0 1.0 0.00 0.00 0.00 79 1013.9
20260507013505 49 213 0.0 1.0 0.00 0.00 0.00 79 1013.8
20260507013026 48 214 0.0 1.0 0.00 0.00 0.00 79 1013.8
20260507012505 48 211 0.0 2.0 0.00 0.00 0.00 78 1013.8
20260507012005 48 210 0.0 2.0 0.00 0.00 0.00 78 1013.8
20260507010505 48 0 0.0 0.0 0.00 0.00 0.00 78 1013.8
20260507010005 48 208 0.0 1.0 0.00 0.00 0.00 78 1013.7
20260507005505 48 204 0.0 1.0 0.00 0.00 0.00 78 1013.7
20260507005005 49 201 0.0 1.0 0.00 0.00 0.00 78 1013.8
20260507004505 49 223 0.0 1.0 0.00 0.00 0.00 77 1013.7
20260507004005 49 212 0.0 1.0 0.00 0.00 0.00 77 1013.7
20260507003504 49 211 0.0 1.0 0.00 0.00 0.00 77 1013.7
20260507003005 49 211 0.0 1.0 0.00 0.00 0.00 76 1013.8
20260507002504 49 211 0.0 1.0 0.00 0.00 0.00 75 1013.8
20260507002005 49 0 0.0 0.0 0.00 0.00 0.00 75 1013.8
20260507001504 49 0 0.0 0.0 0.00 0.00 0.00 75 1013.9
20260507001005 49 0 0.0 0.0 0.00 0.00 0.00 75 1013.9
20260507000505 49 196 0.0 1.0 0.00 0.00 0.00 75 1013.9
20260507000005 49 210 0.0 1.0 0.00 0.00 0.00 75 1013.9
20260506235504 49 217 0.0 1.0 0.00 0.00 0.00 75 1014.0
20260506235005 49 216 0.0 1.0 0.00 0.00 0.00 74 1014.0
20260506234505 49 216 0.0 1.0 0.00 0.00 0.00 74 1014.0
20260506234005 49 215 0.0 1.0 0.00 0.00 0.00 74 1014.0
20260506233504 49 214 0.0 1.0 0.00 0.00 0.00 74 1014.0
20260506233005 49 213 0.0 1.0 0.00 0.00 0.00 74 1014.0
20260506232505 49 211 0.0 1.0 0.00 0.00 0.00 74 1013.9
20260506232004 49 206 0.0 1.0 0.00 0.00 0.00 73 1014.0
20260506231504 49 206 0.0 1.0 0.00 0.00 0.00 73 1013.9
20260506231005 49 212 0.0 1.0 0.00 0.00 0.00 73 1014.0
20260506230504 49 217 0.0 1.0 0.00 0.00 0.00 73 1014.0
20260506230008 50 0 0.0 0.0 0.00 0.00 0.00 69 1014.1
20260506225504 50 147 0.0 3.0 0.00 0.00 0.00 68 1014.1
20260506225004 50 147 0.0 3.0 0.00 0.00 0.00 68 1014.1
20260506224525 50 148 0.0 1.0 0.00 0.00 0.00 68 1014.1
20260506224004 50 148 0.0 3.0 0.00 0.00 0.00 68 1014.1
20260506223504 50 148 0.0 3.0 0.00 0.00 0.00 68 1014.1
20260506223025 50 148 0.0 2.0 0.00 0.00 0.00 68 1014.1
20260506222525 50 148 0.0 3.0 0.00 0.00 0.00 68 1014.1
20260506222004 50 148 0.0 3.0 0.00 0.00 0.00 67 1014.1
20260506221504 50 148 0.0 3.0 0.00 0.00 0.00 67 1014.0
20260506221005 50 148 0.0 3.0 0.00 0.00 0.00 67 1014.0
20260506220525 50 148 0.0 3.0 0.00 0.00 0.00 67 1014.0
20260506220005 50 148 0.0 5.0 0.00 0.00 0.00 67 1013.9
20260506215505 50 148 0.0 5.0 0.00 0.00 0.00 67 1014.0
20260506215006 50 148 0.0 3.0 0.00 0.00 0.00 67 1013.9
20260506214525 50 146 0.0 3.0 0.00 0.00 0.00 67 1013.9
20260506214004 51 144 0.0 3.0 0.00 0.00 0.00 67 1013.9
20260506213504 51 144 0.0 3.0 0.00 0.00 0.00 67 1013.9
20260506213004 51 144 0.0 2.0 0.00 0.00 0.00 67 1013.9
20260506212504 51 144 0.0 2.0 0.00 0.00 0.00 67 1014.0
20260506212004 51 144 0.0 2.0 0.00 0.00 0.00 67 1014.0
20260506211504 51 141 0.0 4.0 0.00 0.00 0.00 67 1013.8
20260506211004 51 138 0.0 4.0 0.00 0.00 0.00 67 1013.8
20260506210504 51 126 0.0 3.0 0.00 0.00 0.00 68 1013.8
20260506210004 51 126 0.0 2.0 0.00 0.00 0.00 68 1013.8
20260506205504 52 122 0.0 3.0 0.00 0.00 0.00 68 1013.8
20260506205025 52 119 0.0 3.0 0.00 0.00 0.00 68 1013.7
20260506204504 52 0 0.0 0.0 0.00 0.00 0.00 68 1013.7
20260506204004 52 0 0.0 0.0 0.00 0.00 0.00 68 1013.7
20260506203504 52 108 0.0 1.0 0.00 0.00 0.00 68 1013.7
20260506203004 52 108 0.0 1.0 0.00 0.00 0.00 68 1013.8
20260506202504 52 0 0.0 0.0 0.00 0.00 0.00 69 1013.8
20260506202004 52 0 0.0 0.0 0.00 0.00 0.00 69 1013.7
20260506201504 52 0 0.0 0.0 0.00 0.00 0.00 69 1013.7
20260506201004 52 0 0.0 0.0 0.00 0.00 0.00 69 1013.7
20260506200504 52 100 0.0 1.0 0.00 0.00 0.00 69 1013.7
20260506200004 53 100 0.0 1.0 0.00 0.00 0.00 68 1013.6
20260506195504 53 0 0.0 0.0 0.00 0.00 0.00 69 1013.6
20260506195004 53 96 0.0 1.0 0.00 0.00 0.00 69 1013.6
20260506194504 53 96 0.0 1.0 0.00 0.00 0.00 69 1013.5
20260506194025 53 0 0.0 0.0 0.00 0.00 0.00 69 1013.6
20260506193504 53 0 0.0 0.0 0.00 0.00 0.00 69 1013.5
20260506193025 54 0 0.0 0.0 0.00 0.00 0.00 68 1013.5
20260506192504 54 0 0.0 0.0 0.00 0.00 0.00 69 1013.4
20260506192004 54 0 0.0 0.0 0.00 0.00 0.00 68 1013.5
20260506191504 54 0 0.0 0.0 0.00 0.00 0.00 68 1013.5
20260506191004 54 0 0.0 0.0 0.00 0.00 0.00 67 1013.5
20260506190525 55 0 0.0 0.0 0.00 0.00 0.00 67 1013.6
20260506190005 55 0 0.0 0.0 0.00 0.00 0.00 67 1013.5
20260506185504 55 0 0.0 0.0 0.00 0.00 0.00 66 1013.5
20260506185025 55 0 0.0 0.0 0.00 0.00 0.00 65 1013.5
20260506184504 56 0 0.0 0.0 0.00 0.00 0.00 65 1013.5
20260506184025 56 0 0.0 0.0 0.00 0.00 0.00 64 1013.5
20260506183504 56 0 0.0 0.0 0.00 0.00 0.00 62 1013.5
20260506183005 56 0 0.0 0.0 0.00 0.00 0.00 61 1013.4
20260506182504 56 0 0.0 0.0 0.00 0.00 0.00 60 1013.4
20260506182004 56 0 0.0 0.0 0.00 0.00 0.00 59 1013.4
20260506181504 56 0 0.0 0.0 0.00 0.00 0.00 57 1013.3
20260506181004 56 0 0.0 0.0 0.00 0.00 0.00 58 1013.3
20260506180525 56 0 0.0 0.0 0.00 0.00 0.00 57 1013.3
20260506180005 56 0 0.0 0.0 0.00 0.00 0.00 57 1013.3
20260506175504 56 0 0.0 0.0 0.00 0.00 0.00 57 1013.3
20260506175004 56 0 0.0 0.0 0.00 0.00 0.00 56 1013.3
20260506174524 56 0 0.0 0.0 0.00 0.00 0.00 55 1013.3
20260506174004 57 0 0.0 0.0 0.00 0.00 0.00 55 1013.2
20260506173524 57 0 0.0 0.0 0.00 0.00 0.00 54 1013.2
20260506173004 57 0 0.0 0.0 0.00 0.00 0.00 56 1013.3
20260506172503 57 94 0.0 1.0 0.00 0.00 0.00 55 1013.2
20260506172004 57 94 0.0 1.0 0.00 0.00 0.00 55 1013.2
20260506171504 57 81 0.0 1.0 0.00 0.00 0.00 56 1013.2
20260506171004 57 63 0.0 2.0 0.00 0.00 0.00 55 1013.1
20260506170503 57 57 0.0 2.0 0.00 0.00 0.00 54 1013.1
20260506170004 57 59 0.0 1.0 0.00 0.00 0.00 55 1013.0
20260506165503 57 78 0.0 2.0 0.00 0.00 0.00 54 1013.0
20260506165004 57 127 0.0 2.0 0.00 0.00 0.00 53 1013.1